TimeMST,TemperatureF,Dew PointF,Humidity,Sea Level PressureIn,VisibilityMPH,Wind Direction,Wind SpeedMPH,Gust SpeedMPH,PrecipitationIn,Events,Conditions,WindDirDegrees,DateUTC
12:12 AM,11.5,9.9,93,29.87,1.8,Calm,Calm,-,N/A,,Overcast,0,2013-02-22 07:12:00
12:32 AM,9.1,7.2,92,29.88,5.0,Calm,Calm,-,N/A,,Overcast,0,2013-02-22 07:32:00
12:52 AM,9.5,7.5,92,29.88,7.0,Calm,Calm,-,N/A,,Overcast,0,2013-02-22 07:52:00
1:12 AM,9.7,7.7,92,29.88,2.0,Calm,Calm,-,N/A,,Overcast,0,2013-02-22 08:12:00
1:32 AM,11.5,9.3,91,29.88,2.0,Calm,Calm,-,N/A,,Overcast,0,2013-02-22 08:32:00
1:53 AM,10.9,8.8,91,29.87,0.5,Calm,Calm,-,N/A,,Overcast,0,2013-02-22 08:53:00
2:12 AM,9.3,7.3,92,29.87,1.5,Calm,Calm,-,N/A,,Mostly Cloudy,0,2013-02-22 09:12:00
2:32 AM,10.4,8.6,92,29.87,7.0,Calm,Calm,-,N/A,,Mostly Cloudy,0,2013-02-22 09:32:00
2:52 AM,9.0,7.0,92,29.87,2.0,Calm,Calm,-,N/A,,Overcast,0,2013-02-22 09:52:00
3:12 AM,9.1,7.3,92,29.87,3.0,Calm,Calm,-,N/A,,Overcast,0,2013-02-22 10:12:00
3:32 AM,8.4,5.9,89,29.87,2.5,Calm,Calm,-,N/A,,Overcast,0,2013-02-22 10:32:00
3:52 AM,8.2,6.1,91,29.87,3.0,Calm,Calm,-,N/A,,Overcast,0,2013-02-22 10:52:00
4:12 AM,9.5,7.5,92,29.87,2.0,Calm,Calm,-,N/A,,Overcast,0,2013-02-22 11:12:00
4:33 AM,9.3,7.3,92,29.88,2.0,Calm,Calm,-,N/A,,Overcast,0,2013-02-22 11:33:00
4:52 AM,9.1,7.0,91,29.88,3.0,Calm,Calm,-,N/A,,Overcast,0,2013-02-22 11:52:00
5:12 AM,8.4,6.3,91,29.89,2.0,Calm,Calm,-,N/A,,Overcast,0,2013-02-22 12:12:00
5:32 AM,9.5,7.0,90,29.89,2.0,Calm,Calm,-,N/A,,Overcast,0,2013-02-22 12:32:00
5:52 AM,10.4,8.4,92,29.89,1.2,Calm,Calm,-,N/A,,Overcast,0,2013-02-22 12:52:00
6:12 AM,8.8,6.6,91,29.90,0.8,Calm,Calm,-,N/A,,Overcast,0,2013-02-22 13:12:00
6:32 AM,10.4,8.4,92,29.90,0.8,Calm,Calm,-,N/A,,Overcast,0,2013-02-22 13:32:00
6:52 AM,8.8,6.6,91,29.90,1.2,Calm,Calm,-,N/A,,Overcast,0,2013-02-22 13:52:00
7:12 AM,9.1,7.0,91,29.91,3.0,Calm,Calm,-,N/A,,Overcast,0,2013-02-22 14:12:00
7:32 AM,7.5,5.2,90,29.91,2.5,Calm,Calm,-,N/A,,Overcast,0,2013-02-22 14:32:00
7:53 AM,9.0,7.0,92,29.92,0.8,Calm,Calm,-,N/A,,Overcast,0,2013-02-22 14:53:00
8:11 AM,9.3,7.3,92,29.92,0.8,Calm,Calm,-,N/A,,Overcast,0,2013-02-22 15:11:00
8:25 AM,10.6,8.4,91,29.92,0.5,Calm,Calm,-,N/A,,Overcast,0,2013-02-22 15:25:00
10:52 AM,19.9,11.3,69,29.94,2.0,Calm,Calm,-,N/A,,Overcast,0,2013-02-22 17:52:00
11:10 AM,23.4,11.7,61,29.95,7.0,Calm,Calm,-,N/A,,Overcast,0,2013-02-22 18:10:00
11:31 AM,22.1,11.1,63,29.95,10.0,Calm,Calm,-,N/A,,Overcast,0,2013-02-22 18:31:00
11:50 AM,23.4,10.6,58,29.95,10.0,Calm,Calm,-,N/A,,Overcast,0,2013-02-22 18:50:00
12:10 PM,24.6,10.9,56,29.95,10.0,Calm,Calm,-,N/A,,Overcast,0,2013-02-22 19:10:00
12:30 PM,25.5,10.2,52,29.94,10.0,Calm,Calm,-,N/A,,Mostly Cloudy,0,2013-02-22 19:30:00
12:50 PM,26.2,10.2,51,29.94,10.0,Calm,Calm,-,N/A,,Scattered Clouds,0,2013-02-22 19:50:00
1:11 PM,27.0,9.1,47,29.93,10.0,Calm,Calm,-,N/A,,Clear,0,2013-02-22 20:11:00
1:30 PM,26.6,9.0,47,29.93,10.0,SSW,6.9,-,N/A,,Clear,200,2013-02-22 20:30:00
1:50 PM,27.0,10.2,49,29.92,7.0,SSW,5.8,-,N/A,,Mostly Cloudy,200,2013-02-22 20:50:00
2:10 PM,27.5,9.9,48,29.92,10.0,SSW,5.8,-,N/A,,Overcast,200,2013-02-22 21:10:00
2:30 PM,27.0,9.5,48,29.92,10.0,SSW,5.8,-,N/A,,Scattered Clouds,210,2013-02-22 21:30:00
2:50 PM,27.1,8.6,46,29.91,10.0,SSW,5.8,-,N/A,,Clear,200,2013-02-22 21:50:00
3:09 PM,26.6,8.2,46,29.91,10.0,SSW,6.9,-,N/A,,Clear,210,2013-02-22 22:09:00
3:30 PM,26.2,8.6,47,29.92,10.0,SW,4.6,-,N/A,,Clear,220,2013-02-22 22:30:00
3:49 PM,26.1,9.0,49,29.91,10.0,SSW,3.5,-,N/A,,Clear,200,2013-02-22 22:49:00
4:10 PM,25.2,8.4,49,29.91,10.0,SW,6.9,-,N/A,,Clear,220,2013-02-22 23:10:00
4:30 PM,24.8,8.4,50,29.92,10.0,Calm,Calm,-,N/A,,Scattered Clouds,0,2013-02-22 23:30:00
4:50 PM,23.9,7.7,50,29.92,10.0,SW,5.8,-,N/A,,Clear,230,2013-02-22 23:50:00
5:10 PM,21.6,7.7,55,29.92,10.0,Calm,Calm,-,N/A,,Clear,0,2013-02-23 00:10:00
5:30 PM,19.6,7.5,60,29.93,10.0,Calm,Calm,-,N/A,,Clear,0,2013-02-23 00:30:00
5:50 PM,18.1,7.5,63,29.94,10.0,Calm,Calm,-,N/A,,Clear,0,2013-02-23 00:50:00
6:10 PM,17.4,7.5,65,29.94,10.0,Calm,Calm,-,N/A,,Clear,0,2013-02-23 01:10:00
6:30 PM,17.2,7.5,66,29.95,10.0,Calm,Calm,-,N/A,,Scattered Clouds,0,2013-02-23 01:30:00
6:49 PM,18.3,7.5,63,29.95,10.0,Calm,Calm,-,N/A,,Mostly Cloudy,0,2013-02-23 01:49:00
7:10 PM,16.3,7.0,67,29.95,10.0,SE,5.8,-,N/A,,Mostly Cloudy,130,2013-02-23 02:10:00
7:30 PM,14.7,7.2,72,29.95,10.0,East,3.5,-,N/A,,Mostly Cloudy,80,2013-02-23 02:30:00
7:50 PM,16.2,7.3,68,29.95,10.0,Calm,Calm,-,N/A,,Mostly Cloudy,0,2013-02-23 02:50:00
8:10 PM,16.3,7.5,68,29.95,10.0,Calm,Calm,-,N/A,,Overcast,0,2013-02-23 03:10:00
8:30 PM,15.6,7.2,69,29.95,10.0,ENE,3.5,-,N/A,,Overcast,70,2013-02-23 03:30:00
8:50 PM,14.5,6.8,71,29.96,10.0,Calm,Calm,-,N/A,,Overcast,0,2013-02-23 03:50:00
9:10 PM,14.5,7.0,72,29.97,10.0,Calm,Calm,-,N/A,,Overcast,0,2013-02-23 04:10:00
9:30 PM,14.5,7.0,72,29.97,7.0,South,3.5,-,N/A,,Overcast,170,2013-02-23 04:30:00
9:51 PM,14.0,7.2,74,29.98,10.0,Calm,Calm,-,N/A,,Overcast,0,2013-02-23 04:51:00
10:11 PM,14.4,8.1,76,29.98,7.0,Calm,Calm,-,N/A,,Overcast,0,2013-02-23 05:11:00
10:50 PM,14.9,9.1,78,29.96,7.0,ENE,5.8,-,N/A,,Overcast,70,2013-02-23 05:50:00
11:10 PM,14.7,8.4,76,29.95,10.0,East,10.4,-,N/A,,Overcast,80,2013-02-23 06:10:00
11:30 PM,15.3,8.8,76,29.95,10.0,East,4.6,-,N/A,,Overcast,100,2013-02-23 06:30:00
11:50 PM,13.8,7.7,77,29.95,10.0,Calm,Calm,-,N/A,,Overcast,0,2013-02-23 06:50:00